User: anonymous
Location: Caltech
(34.1382°N, 118.1253°W)
Time: 02:05:38
(UTC-07:00)
Language:

Iridium 72 - Orbit

View from above orbital plane
View from above orbital plane
View from above satellite
View from above satellite

Ground track
Ground track

The orbit data is extracted from the following two-line orbital elements,

1 25343U 98032B   14239.15834052  .00000207  00000-0  66965-4 0  9272
2 25343 086.3944 292.3266 0002392 108.8714 265.3430 14.34217506852188
Epoch (UTC): 27 August 2014 03:48:00
Eccentricity: 0.0002392
inclination: 86.3944°
perigee height: 776 km
apogee height: 779 km
right ascension of ascending node: 292.3266°
argument of perigee: 108.8714°
revolutions per day: 14.34217506
mean anomaly at epoch: 265.3430°
orbit number at epoch: 85218

The dashed part of the orbit path shows where the satellite is in the earth's shadow,  

DLR